Location: Unspecified
(50.7693°N, 0.0000°E)
Time: 01:31:11
(UTC+00:00)

Transit 4A - Pass Details

Date: 01 July 2019
Orbit: 863 x 981 km, 66.8° (Epoch: 18 August)

Event Time Altitude Azimuth Distance (km) Brightness Sun altitude
Rises 06:51:46 0° 221° (SW) 3,630 10.6 25.1°
Reaches altitude 10° 06:54:17 10° 223° (SW) 2,700 10.0 25.5°
Maximum altitude 07:00:38 77° 309° (NW) 1,008 8.4 26.5°
Drops below altitude 10° 07:07:06 10° 36° (NE) 2,745 11.0 27.6°
Sets 07:09:42 0° 38° (NE) 3,694 11.6 28.0°
